Probability
3 3 6 6 10 6 6 6 3 3 3 3 6 6 6 3 3 3 6 6 10 10 10 6 6 3 3 3 3 3 3 3 3 3 3 3 0 0 0 0 0 0 0
6 10 13 13 10 10 6 10 6 3 3 3 3 6 6 0 0 0 3 6 10 10 10 10 6 3 3 3 3 3 3 3 3 3 3 0 0 0 0 0 0 0 0
13 16 16 13 16 10 10 13 3 3 3 3 3 3 3 0 3 0 0 0 6 10 10 6 6 3 3 3 3 3 3 3 3 0 0 0 0 0 0 0 0 0 0
13 13 10 10 13 13 13 10 3 3 3 3 3 6 3 3 3 6 0 0 0 3 3 6 6 6 6 6 6 3 3 3 3 0 0 0 0 0 0 0 0 0 0
10 10 6 6 6 6 6 6 3 3 3 3 3 3 3 3 0 3 0 0 0 0 0 3 3 3 3 6 6 6 3 3 3 0 0 0 0 0 0 0 0 0 0
3 6 10 6 3 6 6 3 3 6 3 3 3 3 3 3 3 3 0 0 0 0 0 0 3 0 0 0 3 3 3 3 3 0 0 0 0 0 0 0 0 0 0
6 10 10 10 6 10 6 3 3 3 3 3 3 3 3 3 3 3 0 0 0 0 0 0 3 0 0 0 0 0 0 3 3 0 0 0 0 0 0 0 0 0 0
6 6 10 10 6 6 6 0 0 0 3 3 3 3 0 3 3 3 0 0 0 0 0 0 3 3 0 0 0 0 0 0 0 0 0 0 0 0 0 0 0 0 0
3 6 10 10 6 6 6 6 6 3 3 3 3 3 3 0 3 3 0 0 0 0 0 0 3 3 0 0 0 0 0 0 0 0 0 0 0 0 0 0 0 0 0
3 3 6 6 6 6 6 6 3 3 3 3 3 3 3 0 3 3 0 0 0 0 0 3 0 0 0 0 0 0 0 0 0 0 0 0 0 0 0 0 0 0 0
0 3 3 3 3 3 3 3 3 3 3 3 3 3 0 0 3 0 0 0 0 0 0 0 0 0 0 0 0 0 0 0 0 0 0 0 0 0 0 0 0 0 0
0 0 3 3 0 0 0 0 0 0 0 0 0 0 0 0 0 0 0 0 0 0 0 0 0 0 0 0 0 0 0 0 0 0 0 0 0 0 0 0 0 0 0
0 0 0 0 0 0 0 0 0 0 0 0 0 0 0 0 0 0 0 0 0 0 0 0 0 0 0 0 0 0 0 0 0 0 0 0 0 0 0 0 0 0 0
0 0 0 0 0 0 0 0 0 0 0 0 0 0 0 0 0 0 0 0 0 0 0 0 0 0 0 0 0 0 0 0 0 0 0 0 0 0 0 0 0 0 0
0 0 0 0 0 0 0 0 0 0 0 0 0 0 0 0 0 0 0 0 0 0 0 0 0 0 0 0 0 0 0 0 0 0 0 0 0 0 0 0 0 0 0
0 0 0 0 0 0 0 0 0 0 0 0 0 0 0 0 0 0 0 0 0 0 0 0 0 0 0 0 0 0 0 0 0 0 0 0 0 0 0 0 0 0 0
0 0 0 0 0 0 0 0 0 0 0 0 0 0 0 0 0 0 0 0 0 0 0 0 0 0 0 0 0 0 0 0 0 0 0 0 0 0 0 0 0 0 0
0 0 0 0 0 0 0 0 0 0 0 0 0 0 0 0 0 0 0 0 0 0 0 0 0 0 0 0 0 0 0 0 0 0 0 0 0 0 0 0 0 0 0
0 0 0 0 0 0 0 0 0 0 0 0 0 0 0 0 0 0 0 0 0 0 0 0 0 0 0 0 0 0 0 0 0 0 0 0 0 0 0 0 0 0 0
0 0 0 0 0 0 0 0 0 0 0 0 0 0 0 0 0 0 0 0 0 0 0 0 0 0 0 0 0 0 0 0 0 0 0 0 0 0 0 0 0 0 0
0 0 0 0 0 0 0 0 0 0 0 0 0 0 0 0 0 0 0 0 0 0 0 0 0 0 0 0 0 0 0 0 0 0 0 0 0 0 0 0 0 0 0
0 0 0 0 0 0 0 0 0 0 0 0 0 0 0 0 0 0 0 0 0 0 0 0 0 0 0 0 0 0 0 0 0 0 0 0 0 0 0 0 0 0 0
0 0 0 0 0 0 0 0 0 0 0 0 0 0 0 0 0 0 0 0 0 0 0 0 0 0 0 0 0 0 0 0 0 0 0 0 0 0 0 0 0 0 0
0 0 0 0 0 0 0 0 0 0 0 0 0 0 0 0 0 0 0 0 0 0 0 0 0 0 0 0 0 0 0 0 0 0 0 0 0 0 0 0 0 0 0
0 0 0 0 0 0 0 0 0 0 0 0 0 0 0 0 0 0 0 0 0 0 0 0 0 0 0 0 0 0 0 0 0 0 0 0 0 0 0 0 0 0 0
0 0 0 0 0 0 0 0 0 0 0 0 0 0 0 0 0 0 0 0 0 0 0 0 0 0 0 0 0 0 0 0 0 0 0 0 0 0 0 0 0 0 0
Height
5830 5828 5827 5824 5822 5820 5818 5816 5814 5813 5811 5809 5808 5807 5806 5804 5803 5801 5799 5797 5794 5792 5790 5788 5786 5784 5782 5781 5779 5778 5776 5775 5773 5771 5770 5770 5769 5768 5768 5768 5768 5769 5769
5827 5825 5823 5820 5818 5816 5814 5812 5810 5808 5806 5804 5802 5801 5799 5798 5796 5794 5792 5790 5788 5785 5783 5781 5779 5777 5775 5773 5772 5771 5769 5767 5765 5764 5763 5763 5762 5760 5760 5760 5760 5760 5761
5824 5822 5820 5817 5814 5812 5810 5808 5806 5803 5801 5799 5797 5795 5793 5792 5790 5788 5786 5784 5781 5779 5777 5775 5772 5770 5768 5766 5765 5764 5762 5761 5759 5757 5756 5755 5755 5754 5753 5752 5752 5752 5752
5821 5819 5816 5813 5811 5808 5806 5804 5801 5799 5796 5794 5792 5790 5788 5786 5785 5783 5780 5778 5776 5773 5771 5769 5766 5764 5761 5760 5758 5757 5755 5753 5752 5750 5748 5748 5747 5746 5746 5745 5744 5744 5744
5818 5815 5813 5810 5807 5805 5802 5800 5797 5794 5791 5789 5787 5785 5783 5781 5780 5777 5774 5772 5770 5768 5765 5763 5760 5758 5756 5754 5752 5750 5748 5747 5745 5743 5741 5740 5739 5737 5737 5738 5737 5736 5735
5815 5812 5809 5806 5803 5801 5798 5795 5793 5790 5787 5785 5782 5780 5779 5777 5775 5772 5769 5767 5765 5763 5760 5757 5754 5752 5750 5748 5746 5744 5742 5740 5738 5736 5734 5733 5731 5730 5729 5729 5729 5728 5728
5812 5809 5806 5803 5800 5797 5794 5791 5788 5785 5783 5780 5778 5776 5774 5772 5770 5767 5764 5762 5760 5757 5754 5751 5749 5747 5745 5742 5739 5737 5736 5733 5731 5729 5727 5725 5723 5722 5720 5720 5720 5719 5720
5808 5805 5801 5798 5796 5793 5789 5786 5783 5781 5778 5776 5774 5771 5769 5766 5764 5762 5759 5757 5754 5752 5749 5746 5743 5741 5738 5736 5733 5731 5729 5726 5724 5722 5720 5717 5715 5713 5712 5711 5711 5711 5711
5804 5801 5798 5794 5791 5788 5785 5782 5779 5776 5774 5772 5769 5767 5764 5762 5760 5757 5754 5751 5749 5746 5743 5741 5738 5735 5733 5730 5727 5725 5722 5719 5717 5714 5712 5709 5707 5705 5704 5703 5702 5702 5702
5801 5798 5794 5791 5787 5784 5781 5778 5775 5773 5770 5768 5765 5762 5760 5758 5755 5752 5749 5746 5744 5741 5738 5735 5733 5730 5727 5724 5722 5719 5716 5713 5710 5707 5704 5702 5699 5697 5695 5695 5694 5693 5693
5798 5795 5791 5788 5784 5781 5778 5774 5772 5769 5766 5763 5761 5758 5756 5753 5750 5747 5745 5742 5739 5736 5733 5730 5728 5724 5721 5718 5715 5712 5710 5706 5704 5701 5697 5695 5692 5690 5688 5687 5686 5685 5685
5795 5792 5788 5785 5781 5778 5775 5772 5768 5765 5762 5759 5757 5754 5752 5749 5746 5743 5740 5737 5734 5731 5729 5726 5723 5719 5716 5712 5709 5707 5703 5700 5697 5694 5691 5688 5686 5684 5682 5681 5679 5678 5678
5792 5788 5785 5781 5777 5774 5771 5768 5765 5762 5759 5756 5752 5750 5747 5745 5742 5740 5736 5733 5730 5727 5724 5721 5717 5714 5711 5707 5704 5701 5697 5694 5691 5687 5684 5681 5679 5677 5675 5674 5673 5672 5671
5788 5785 5781 5777 5774 5771 5768 5765 5762 5758 5755 5752 5748 5746 5743 5741 5738 5735 5732 5729 5726 5722 5719 5716 5712 5709 5706 5702 5699 5695 5692 5688 5685 5681 5678 5675 5673 5671 5669 5668 5667 5665 5664
5785 5781 5778 5774 5771 5768 5765 5762 5759 5755 5752 5749 5745 5742 5739 5737 5734 5731 5728 5725 5721 5718 5715 5711 5707 5704 5700 5697 5693 5689 5686 5683 5679 5676 5673 5670 5667 5665 5663 5662 5660 5659 5658
5782 5778 5775 5771 5768 5765 5762 5758 5755 5752 5749 5746 5742 5739 5736 5733 5730 5727 5724 5721 5717 5714 5710 5706 5702 5699 5695 5691 5687 5684 5681 5677 5674 5671 5667 5664 5662 5659 5657 5656 5654 5653 5652
5779 5775 5772 5768 5765 5762 5759 5756 5752 5749 5746 5743 5739 5736 5733 5730 5726 5723 5720 5716 5713 5710 5706 5702 5698 5694 5691 5686 5683 5678 5675 5672 5669 5666 5663 5660 5657 5654 5652 5650 5648 5647 5646
5775 5772 5768 5765 5762 5759 5756 5752 5750 5746 5743 5740 5736 5733 5729 5726 5723 5720 5716 5712 5709 5706 5702 5698 5694 5691 5687 5682 5678 5674 5671 5667 5664 5661 5658 5655 5653 5650 5648 5646 5644 5642 5640
5771 5768 5765 5762 5759 5756 5753 5749 5746 5743 5740 5737 5733 5730 5726 5723 5720 5716 5713 5709 5706 5702 5698 5695 5691 5687 5683 5679 5675 5671 5668 5664 5660 5657 5654 5651 5649 5646 5644 5642 5640 5637 5635
5768 5765 5761 5758 5755 5753 5749 5746 5743 5740 5737 5733 5730 5727 5724 5720 5717 5713 5710 5707 5703 5699 5695 5692 5688 5685 5681 5677 5673 5669 5665 5661 5657 5654 5650 5647 5644 5642 5640 5638 5635 5633 5631
5764 5761 5758 5755 5752 5749 5746 5743 5740 5737 5733 5730 5727 5724 5721 5718 5714 5711 5708 5704 5700 5697 5693 5690 5686 5682 5679 5675 5671 5667 5663 5659 5655 5651 5647 5644 5641 5638 5636 5634 5631 5629 5626
5760 5757 5754 5751 5748 5745 5742 5739 5736 5733 5730 5727 5724 5721 5718 5715 5712 5709 5706 5702 5698 5695 5691 5687 5684 5680 5677 5673 5669 5665 5660 5656 5652 5648 5645 5641 5638 5635 5632 5630 5627 5625 5622
5756 5753 5751 5748 5745 5742 5738 5735 5733 5730 5727 5724 5721 5718 5715 5712 5709 5706 5703 5700 5696 5693 5689 5686 5682 5679 5675 5671 5667 5663 5658 5654 5650 5646 5642 5639 5635 5632 5629 5626 5623 5620 5618
5752 5749 5747 5744 5742 5739 5735 5732 5729 5727 5724 5722 5719 5716 5713 5710 5707 5704 5701 5698 5695 5691 5688 5685 5681 5677 5674 5670 5666 5661 5657 5653 5648 5644 5640 5636 5633 5629 5626 5623 5620 5617 5614
5747 5745 5743 5740 5738 5735 5732 5729 5726 5724 5721 5719 5716 5714 5711 5708 5705 5702 5699 5695 5692 5689 5686 5683 5680 5676 5673 5669 5664 5660 5656 5651 5647 5642 5638 5634 5631 5627 5624 5620 5617 5614 5611
5742 5740 5738 5736 5734 5731 5729 5726 5723 5721 5719 5716 5714 5711 5709 5706 5703 5700 5696 5693 5690 5688 5685 5682 5678 5675 5671 5667 5663 5659 5654 5650 5645 5641 5636 5632 5629 5625 5622 5618 5615 5612 5608
Wind_Speed
15 15 16 16 16 17 18 19 19 18 18 19 20 21 22 23 23 23 24 25 25 26 26 27 27 26 26 26 27 28 27 27 27 27 27 27 27 28 28 28 28 28 29
15 15 16 17 17 18 18 18 18 18 18 19 20 21 22 22 22 23 23 23 24 24 25 25 25 26 25 25 26 26 25 25 26 25 25 26 26 27 27 27 28 28 29
15 15 15 17 17 17 17 18 18 18 19 20 20 20 20 21 22 22 22 22 22 23 24 24 24 24 24 24 25 25 24 24 24 24 25 24 24 25 26 27 29 29 30
14 15 16 17 17 17 18 19 20 19 20 20 20 19 19 20 21 22 22 22 23 23 23 23 22 22 23 24 23 23 24 24 24 24 25 25 26 26 25 26 28 29 30
16 17 18 18 18 19 20 21 21 20 20 19 19 19 20 21 22 22 22 22 23 23 23 23 22 22 22 22 22 23 23 25 25 24 25 26 27 27 27 26 27 29 29
17 19 20 20 20 20 22 22 22 21 20 20 20 20 20 21 22 22 22 22 23 23 23 23 23 22 22 22 23 24 24 25 25 25 26 27 28 28 27 27 27 28 28
19 19 20 21 21 22 22 22 22 21 21 21 21 20 20 21 22 22 22 22 23 23 23 24 24 24 24 24 24 24 25 24 25 26 27 28 28 28 28 27 27 26 26
18 19 19 20 21 22 22 22 21 21 21 20 20 21 22 22 23 22 22 22 22 23 23 23 24 25 25 25 25 24 25 26 26 26 27 28 28 28 27 27 27 27 27
18 19 19 20 21 21 21 20 20 20 20 20 21 21 21 21 21 21 21 21 21 22 22 22 23 24 24 24 25 26 26 26 26 27 27 27 27 27 27 27 27 27 27
18 19 19 20 20 20 19 18 19 19 19 19 20 21 22 22 22 21 21 21 22 22 22 21 21 22 23 24 25 26 26 26 25 26 26 26 26 26 26 26 27 27 26
18 19 19 20 19 18 17 18 19 20 20 20 20 21 21 21 21 21 21 21 22 22 22 21 21 22 24 24 25 25 25 25 25 26 25 24 23 23 23 24 24 25 25
19 19 20 20 18 18 18 18 19 19 20 20 20 20 20 21 21 20 21 21 21 21 21 22 22 23 24 24 24 24 25 25 25 24 24 23 22 22 22 22 23 23 23
19 20 20 19 18 17 17 18 19 20 20 20 21 20 20 20 20 20 20 21 20 20 21 22 22 23 24 23 23 23 23 23 24 24 23 21 21 21 21 21 22 22 23
19 19 20 19 18 17 17 18 19 20 20 20 20 19 19 19 19 20 21 20 20 21 22 22 22 22 23 22 22 22 23 23 23 23 22 21 21 21 21 21 22 22 22
18 20 20 19 18 17 18 19 20 20 19 19 18 19 19 18 19 20 20 20 20 21 21 22 22 22 22 23 23 23 23 23 22 22 22 21 21 21 20 20 20 20 21
19 19 19 19 18 18 19 19 19 19 19 19 19 19 18 18 19 19 19 20 21 22 22 23 23 23 23 23 23 22 22 21 21 21 21 21 20 19 19 19 19 19 19
19 19 19 19 19 19 19 19 19 20 20 19 19 19 19 19 20 20 20 21 21 22 22 22 22 22 22 22 22 21 21 21 21 21 20 19 18 18 17 18 18 18 18
19 19 19 20 19 19 19 19 19 20 20 20 19 19 20 20 20 20 21 21 21 21 21 21 21 21 22 22 21 21 21 20 20 20 19 18 17 17 17 17 17 18 18
19 19 20 20 19 19 19 19 20 20 20 20 19 19 19 20 20 20 20 20 20 20 19 19 20 20 21 20 20 20 21 20 20 19 19 18 16 17 17 16 16 16 17
19 19 20 20 19 19 19 19 20 21 20 20 19 19 19 19 18 18 19 19 19 19 19 19 19 19 19 19 19 19 20 20 20 19 18 18 17 17 17 16 15 15 15
19 19 19 20 20 20 20 20 20 20 19 19 19 19 18 18 18 18 17 18 19 18 18 18 18 18 18 19 19 19 20 20 20 19 18 18 17 17 16 17 16 16 15
19 19 20 20 20 20 20 19 19 19 19 19 18 18 18 17 17 17 17 18 18 17 17 17 18 17 18 19 19 20 20 20 20 19 18 18 17 17 16 17 17 16 16
19 19 19 19 20 20 20 19 19 18 17 17 17 17 17 16 16 17 17 18 17 17 17 17 17 17 18 19 20 20 21 21 20 19 18 17 17 16 16 16 16 16 15
19 19 19 19 20 20 19 19 18 17 16 16 17 17 17 16 16 17 17 17 16 16 16 16 17 18 18 19 19 20 21 21 21 20 19 18 17 17 17 17 16 16 16
20 19 19 19 19 19 19 19 18 16 16 15 16 16 17 17 16 16 17 16 15 15 15 16 17 18 19 19 19 20 21 22 22 21 20 20 19 18 17 17 17 17 16
21 20 19 19 19 20 19 18 17 16 15 15 16 16 16 16 16 17 16 15 14 14 14 15 17 18 19 19 19 20 21 22 22 21 21 20 19 18 17 17 17 17 17
Wind_Direction
299 298 299 300 301 300 300 301 300 297 296 297 296 293 294 294 295 296 297 297 294 294 294 293 292 290 289 289 288 286 287 288 286 284 281 279 277 275 273 271 270 269 267
297 299 303 305 303 301 301 303 303 300 298 298 297 298 298 297 297 298 299 298 296 297 297 296 296 293 291 289 289 290 289 290 288 286 283 281 281 278 275 273 272 270 268
299 303 307 307 304 303 302 304 306 305 303 301 300 302 299 299 300 299 299 299 299 298 298 299 299 298 296 293 292 291 290 289 289 288 288 286 284 280 278 276 274 272 269
301 304 304 305 303 301 301 304 306 306 306 305 304 305 304 303 303 303 302 301 300 299 299 300 300 300 298 294 294 293 291 290 289 289 289 287 286 285 281 278 275 273 270
304 307 307 307 306 303 302 304 306 306 306 304 307 308 307 305 305 305 303 300 300 300 301 301 302 300 297 296 296 295 295 294 293 291 291 289 287 285 283 280 276 274 271
305 305 309 309 308 307 308 308 306 305 303 303 304 305 304 304 304 304 303 300 300 301 303 304 304 300 297 297 298 298 298 296 294 292 291 290 288 286 283 281 278 275 272
307 306 307 307 310 309 307 309 309 304 303 303 302 303 304 303 303 303 304 303 302 302 304 305 304 300 298 298 300 298 298 299 297 293 292 290 288 286 283 281 279 275 272
312 310 308 308 310 309 309 309 308 306 305 304 303 303 303 302 303 305 306 305 304 302 304 305 303 302 301 302 301 301 300 299 296 293 291 290 289 286 284 281 277 275 273
318 318 315 314 314 314 313 311 308 307 305 304 305 307 306 306 309 311 311 310 308 305 305 305 305 304 303 303 302 302 303 301 298 295 293 293 290 286 283 279 277 276 275
322 322 322 319 318 317 316 314 309 308 308 310 311 310 310 310 313 313 312 312 312 311 310 308 306 306 305 302 303 305 304 302 301 300 296 294 292 288 282 278 276 276 274
322 324 324 323 321 319 318 317 315 313 311 311 312 312 312 313 315 315 313 313 313 314 314 310 310 311 310 307 305 306 307 305 303 301 298 295 293 289 284 280 277 275 274
321 322 323 324 322 320 320 318 316 316 314 311 311 312 314 315 316 317 316 315 316 316 315 312 311 312 313 311 308 308 309 309 307 305 301 296 293 291 288 284 281 278 276
323 323 323 324 323 321 320 319 320 321 321 319 317 315 314 316 316 317 319 319 319 317 315 313 311 312 313 313 312 311 312 311 311 310 307 302 296 294 290 286 284 280 277
324 325 325 325 324 321 320 319 320 322 323 322 320 318 314 314 314 317 319 320 319 318 318 317 316 316 315 315 314 314 315 314 315 315 312 306 301 297 294 290 288 285 282
326 326 325 327 326 323 321 321 322 323 323 324 324 323 320 317 318 319 319 318 318 319 319 319 319 319 318 319 317 315 316 316 318 318 315 311 306 301 298 296 292 289 286
325 326 326 327 328 327 325 324 324 326 326 324 323 322 322 321 320 319 317 317 318 319 321 322 321 321 321 322 321 318 318 318 319 318 317 315 310 306 303 300 297 293 288
322 323 324 325 326 327 327 327 325 325 326 325 323 323 322 322 322 323 323 322 321 321 323 324 325 325 325 325 325 324 323 322 321 320 318 316 316 313 309 304 299 297 294
319 320 320 322 323 324 325 325 326 326 326 326 325 325 324 324 325 326 326 325 325 324 325 327 329 330 330 330 331 332 330 329 327 324 323 319 315 314 312 309 305 301 297
316 317 317 318 320 322 322 324 326 326 327 327 326 327 327 326 326 327 329 328 327 329 329 330 332 334 335 336 336 336 337 335 331 327 323 321 318 316 315 313 309 306 301
318 316 316 317 319 321 321 323 325 326 326 327 328 328 328 329 329 330 331 331 332 333 333 335 338 340 341 342 341 341 341 341 337 332 327 323 320 317 317 317 314 310 308
319 318 318 318 319 320 321 322 324 326 326 326 327 328 328 330 332 332 333 334 336 338 339 339 340 341 345 346 345 345 345 344 342 339 335 331 327 324 323 323 319 316 315
316 316 318 319 321 322 322 322 322 324 326 327 328 329 330 331 333 335 336 337 338 340 343 344 343 344 346 346 346 346 347 346 343 342 340 337 334 330 327 325 322 319 317
315 315 316 319 322 323 323 322 322 323 326 328 330 331 331 332 333 335 337 338 338 341 343 347 349 349 349 348 347 348 349 349 347 345 345 343 339 337 334 331 328 324 320
312 312 313 315 319 320 321 322 322 322 326 329 332 333 332 332 331 331 334 335 337 339 340 343 347 349 350 349 348 350 351 350 349 347 345 343 341 341 340 338 335 330 327
310 309 310 312 316 318 319 320 321 321 323 327 332 333 332 332 332 331 332 333 334 335 338 341 343 345 347 350 351 352 351 350 350 348 346 344 341 341 341 340 338 334 331
306 305 306 309 313 315 315 316 317 317 319 324 328 329 330 332 334 334 333 334 333 333 335 337 340 343 347 349 350 352 352 351 351 350 348 346 344 343 342 343 342 339 336